User: anonymous   Login
Location: Mentone
(34.5413°N, 85.5351°W)
Time: 14:40:40
(UTC-05:00)
Language:

Centaur AC-72 - Orbit

View from above orbital plane
View from above orbital plane
View from above satellite
View from above satellite

Ground track
Ground track

The orbit data is extracted from the following two-line orbital elements,

1 21907U 92013B   16175.58191248 -.00000106  00000-0  00000+0 0  9999
2 21907  19.6412  23.6455 6952486 303.3312  10.2013  2.25604235200181
Epoch (UTC): 23 June 2016 13:57:57
Eccentricity: 0.6952486
inclination: 19.6412°
perigee height: 1105 km
apogee height: 35251 km
right ascension of ascending node: 23.6455°
argument of perigee: 303.3312°
revolutions per day: 2.25604235
mean anomaly at epoch: 10.2013°
orbit number at epoch: 20018

The dashed part of the orbit path shows where the satellite is in the earth's shadow,  

DLR